Location: Frankfurt am Main
(50.1109°N, 8.6821°E)
Time: 06:32:54
(UTC+02:00)

N. Korean satellite - Visible Passes

Search period start: 26 October 2021 00:00
Search period end: 04 November 2021 23:00
Orbit: 450 x 495 km, 97.3° (Epoch: 25 October)

Date Brightness Start Highest point End Pass type
(mag) Time Alt. Az. Time Alt. Az. Time Alt. Az.
26 Oct 7.3 06:36:48 10° NNE 06:40:25 57° E 06:44:00 10° S visible
26 Oct 9.9 18:49:36 10° SW 18:52:04 17° W 18:54:33 10° NW visible
27 Oct 8.8 06:09:00 10° NE 06:12:12 27° E 06:15:20 10° SSE visible
28 Oct 9.9 05:41:47 10° NE 05:43:50 14° E 05:45:52 10° ESE visible
28 Oct 6.7 07:13:48 10° N 07:17:22 52° WNW 07:20:53 10° SSW visible
29 Oct 6.8 06:45:37 10° NNE 06:49:16 74° ESE 06:52:52 10° S visible
29 Oct 10.0 18:58:58 10° WSW 19:00:57 14° W 19:02:58 10° NW visible
30 Oct 8.4 06:17:40 10° NNE 06:21:02 34° E 06:24:21 10° SSE visible
31 Oct 9.6 04:50:11 10° NE 04:52:42 17° E 04:55:09 10° SE visible
31 Oct 7.0 06:22:39 10° N 06:26:06 41° WNW 06:29:30 10° SW visible
01 Nov 6.5 05:54:21 10° NNE 05:58:01 87° WNW 06:01:36 10° SSW visible
01 Nov 10.3 18:08:32 10° WSW 18:09:47 11° W 18:11:04 10° WNW visible
02 Nov 7.9 05:26:19 10° NNE 05:29:48 43° E 05:33:13 10° S visible
02 Nov 9.6 17:38:26 10° SSW 17:41:21 22° W 17:44:17 10° NW visible
03 Nov 9.2 04:58:37 10° NE 05:01:28 21° E 05:04:15 10° SE visible
03 Nov 7.2 06:31:28 10° N 06:34:45 33° WNW 06:37:59 10° SW visible
04 Nov 10.1 04:32:03 10° ENE 04:32:59 11° E 04:33:55 10° ESE visible
04 Nov 6.5 06:03:03 10° N 06:06:40 69° WNW 06:10:12 10° SSW visible
